"Time","Temp","Dewpoint","Humidity","Pressure","Direction","Speed","Gust","Precip","PrecipRate"
"00:04:58","30.9","19.8","63","30.43","110","1.3","3.5","0.00","0.00"
"00:09:56","30.9","19.8","63","30.43","116","1.5","3.5","0.00","0.00"
"00:14:59","30.8","19.7","63","30.43","141","0.9","3.5","0.00","0.00"
"00:19:58","30.7","19.6","63.1","30.41","148","0.3","2.3","0.00","0.00"
"00:24:57","30.6","19.7","63.6","30.41","148","0.2","1.2","0.00","0.00"
"00:29:56","30.3","20","65.1","30.41","148","0.1","1.2","0.00","0.00"
"00:34:56","29.9","20.6","67.7","30.41","148","0","0","0.00","0.00"
"00:39:59","29.4","20.2","68.2","30.41","148","0.5","2.3","0.00","0.00"
"00:44:58","29","19.8","68","30.41","148","0.5","2.3","0.00","0.00"
"00:49:58","28.7","19.6","68.3","30.40","148","0.3","1.2","0.00","0.00"
"00:54:56","28.4","19.9","70.1","30.40","148","0.2","2.3","0.00","0.00"
"00:59:59","28","20.1","71.9","30.40","148","0","0","0.00","0.00"
"01:04:56","27.7","19.8","72","30.40","148","0","0","0.00","0.00"
"01:09:59","27.5","19.7","72","30.40","148","0","0","0.00","0.00"
"01:14:59","27.2","19.7","73","30.40","148","0","0","0.00","0.00"
"01:19:58","27","19.7","73.5","30.39","148","0","0","0.00","0.00"
"01:24:57","26.8","19.6","74","30.39","148","0","0","0.00","0.00"
"01:29:56","26.6","19.6","74.7","30.39","145","0.4","3","0.00","0.00"
"01:34:58","26.4","19.9","76.1","30.39","145","0.2","1.2","0.00","0.00"
"01:39:57","26.3","19.8","76","30.39","145","0.3","2.3","0.00","0.00"
"01:44:59","26.3","19.7","75.9","30.39","145","0.1","2.3","0.00","0.00"
"01:49:57","26.2","19.3","74.9","30.38","145","0.2","2","0.00","0.00"
"01:54:59","26.4","19.3","74.5","30.38","145","0.4","2.3","0.00","0.00"
"01:59:58","26.5","19.6","75","30.38","145","0.7","2.3","0.00","0.00"
"02:04:57","26.7","19.3","73.4","30.37","158","1.1","4","0.00","0.00"
"02:09:56","27.1","19.5","72.8","30.37","171","1","3.5","0.00","0.00"
"02:14:59","27.4","19.4","71.4","30.37","135","1.1","3","0.00","0.00"
"02:19:57","27.8","19.4","70.3","30.36","133","1.5","3.5","0.00","0.00"
"02:24:58","28.1","19.6","70","30.36","149","1.3","4","0.00","0.00"
"02:29:57","28.3","19.8","70","30.36","177","2","5","0.00","0.00"
"02:34:58","28.5","19.9","69.9","30.35","161","2","3.5","0.00","0.00"
"02:39:57","28.6","19.7","69","30.35","170","2.2","5","0.00","0.00"
"02:44:59","28.7","19.8","69","30.35","155","2.7","5","0.00","0.00"
"02:49:57","28.9","20","69","30.34","157","2.4","5","0.00","0.00"
"02:54:58","29","20.1","69","30.34","146","2.2","5","0.00","0.00"
"02:59:57","29","20.1","69","30.34","152","1.8","4.6","0.00","0.00"
"03:04:56","29","20.1","69","30.33","154","2.6","6","0.00","0.00"
"03:09:58","29.1","20.2","69.2","30.33","167","2.1","5","0.00","0.00"
"03:14:57","29.1","20.2","69.2","30.33","178","1.2","5","0.00","0.00"
"03:19:58","29","20.2","69.4","30.32","148","2.4","4.6","0.00","0.00"
"03:24:59","29","20.3","69.6","30.32","163","2.6","5","0.00","0.00"
"03:29:57","29","20.4","70","30.32","161","2.4","6","0.00","0.00"
"03:34:58","28.9","20.3","70","30.31","151","2.3","6","0.00","0.00"
"03:39:56","29","20.4","70.2","30.31","142","2.6","5","0.00","0.00"
"03:44:58","29","20.4","70","30.31","156","2.4","6","0.00","0.00"
"03:49:56","29.1","20.5","70","30.29","169","2.8","6","0.00","0.00"
"03:54:58","29.1","20.5","70","30.29","161","1.8","5","0.00","0.00"
"03:59:56","29.1","20.6","70.4","30.29","169","2.6","6","0.00","0.00"
"04:04:58","29.1","20.5","70","30.29","160","2.9","6","0.00","0.00"
"04:09:56","29.1","20.5","70","30.29","168","2.6","6","0.00","0.00"
"04:14:58","29.2","20.7","70.4","30.29","180","2.2","5","0.00","0.00"
"04:19:56","29.2","20.6","70","30.28","156","2.5","7","0.00","0.00"
"04:24:58","29.2","20.8","70.5","30.28","163","2.2","6.9","0.00","0.00"
"04:29:56","29.2","20.7","70.2","30.28","171","2.9","6","0.00","0.00"
"04:34:58","29.3","20.8","70.3","30.27","150","3.4","6","0.00","0.00"
"04:39:57","29.4","21","70.5","30.27","165","3.6","7","0.00","0.00"
"04:44:59","29.4","20.8","70.1","30.27","152","3.1","6","0.00","0.00"
"04:49:58","29.5","20.9","70.1","30.26","179","2.9","6","0.00","0.00"
"04:54:59","29.5","21.2","70.7","30.26","154","2.8","6","0.00","0.00"
"04:59:57","29.5","21","70.3","30.26","169","3.9","9.2","0.00","0.00"
"05:04:59","29.6","21","70.2","30.24","162","3.6","9.2","0.00","0.00"
"05:09:57","29.7","21.3","70.7","30.24","136","2.6","7","0.00","0.00"
"05:14:58","29.7","21.3","70.5","30.24","163","3.7","7","0.00","0.00"
"05:19:58","29.8","21.3","70.2","30.24","170","3.3","7","0.00","0.00"
"05:24:58","29.8","21.4","70.4","30.24","165","3.2","9","0.00","0.00"
"05:29:58","29.9","21.4","70.2","30.24","161","2.7","7","0.00","0.00"
"05:34:58","30","21.4","70.2","30.23","186","3.3","8","0.00","0.00"
"05:39:59","30","21.6","70.7","30.23","163","2.7","5","0.00","0.00"
"05:44:59","30.1","21.5","70","30.23","169","2.6","5","0.00","0.00"
"05:49:59","30.2","21.6","70","30.22","170","2.7","6","0.00","0.00"
"05:54:56","30.3","21.9","70.8","30.22","170","2.4","6","0.00","0.00"
"05:59:56","30.3","21.9","70.4","30.22","176","3","6","0.00","0.00"
"06:04:58","30.5","22.1","70.7","30.21","177","3.4","7","0.00","0.00"
"06:09:58","30.6","22.1","70.3","30.21","144","3.6","9.2","0.00","0.00"
"06:14:56","30.7","22.3","70.7","30.21","158","2.5","11.5","0.00","0.00"
"06:19:56","30.8","22.3","70.3","30.18","168","4.3","11.5","0.00","0.00"
"06:24:56","30.9","22.4","70.2","30.18","166","3.8","11.5","0.00","0.00"
"06:29:56","31","22.5","70.2","30.18","180","5.1","12","0.00","0.00"
"06:34:57","31.2","22.5","70","30.18","168","5.3","12","0.00","0.00"
"06:39:57","31.3","22.8","70.5","30.18","187","3","8.1","0.00","0.00"
"06:44:57","31.2","22.9","71","30.18","189","3.1","6","0.00","0.00"
"06:49:58","31.2","22.8","70.8","30.18","193","4.9","12","0.00","0.00"
"06:54:58","31.3","23","71","30.18","190","5","11.5","0.00","0.00"
"06:59:59","31.4","23.1","71","30.18","186","3.9","9.2","0.00","0.00"
"07:04:58","31.4","23.2","71.1","30.18","208","5.2","13","0.00","0.00"
"07:09:59","31.5","23.5","71.9","30.18","199","4.5","8.1","0.00","0.00"
"07:14:58","31.5","23.5","71.9","30.19","194","3.7","11","0.00","0.00"
"07:19:59","31.5","23.5","71.9","30.19","187","3.1","7","0.00","0.00"
"07:24:56","31.6","23.6","72","30.19","188","3.5","7","0.00","0.00"
"07:29:57","31.6","23.4","71.3","30.19","159","3.1","7","0.00","0.00"
"07:34:57","31.7","23.6","71.7","30.17","183","3.2","9.2","0.00","0.00"
"07:39:58","31.6","23.6","72","30.17","177","3.4","9.2","0.00","0.00"
"07:44:59","31.7","23.7","72","30.17","168","3.2","6.9","0.00","0.00"
"07:49:59","31.6","24","73.2","30.16","174","3","6","0.00","0.00"
"07:54:59","31.5","24.3","74.2","30.16","163","2.8","7","0.00","0.00"
"07:59:56","31.5","24.4","74.7","30.16","157","3.6","6.9","0.00","0.00"
"08:04:59","31.4","24.8","76.3","30.15","180","3.2","9.2","0.00","0.00"
"08:09:56","31.3","25","77.5","30.15","154","2.6","6","0.00","0.00"
"08:14:57","31.2","25.1","78.1","30.15","154","2.4","7","0.00","0.00"
"08:19:58","31.1","25.3","79","30.14","153","2.9","6.9","0.00","0.00"
"08:24:58","31","25.6","80","30.14","173","3.4","7","0.00","0.00"
"08:29:57","30.9","25.8","81","30.14","184","3.8","8","0.00","0.00"
"08:34:57","30.8","25.9","81.7","30.14","181","2.4","6","0.00","0.00"
"08:39:57","30.7","26","82.3","30.14","146","2.6","6","0.00","0.00"
"08:44:58","30.6","26.2","83.6","30.14","151","2.8","6","0.00","0.00"
"08:49:58","30.5","26.3","84.3","30.14","152","2.1","7","0.00","0.00"
"08:54:58","30.5","26.5","85","30.14","158","2.4","5.8","0.00","0.00"
"08:59:58","30.5","26.7","85.6","30.14","149","2.2","5","0.00","0.00"
"09:04:56","30.6","26.8","85.8","30.12","164","3.3","6","0.00","0.00"
"09:09:57","30.7","27","86","30.12","174","3.2","7","0.00","0.00"
"09:14:56","30.7","27.1","86.1","30.12","158","2.5","7","0.00","0.00"
"09:19:58","30.8","27.3","86.8","30.11","154","2.3","5","0.00","0.00"
"09:24:59","30.8","27.5","87.2","30.11","166","2.7","10","0.00","0.00"
"09:29:56","30.9","27.8","88","30.11","182","2.3","6","0.00","0.00"
"09:34:58","30.9","27.8","88","30.09","173","2.7","6","0.00","0.00"
"09:39:57","31","28","88.3","30.09","163","2.1","4","0.00","0.00"
"09:44:59","31","28.1","88.7","30.09","179","3.6","9.2","0.00","0.00"
"09:49:56","31","28","88.3","30.08","172","3.1","7","0.00","0.00"
"09:54:59","31.1","28.2","88.9","30.08","178","2.4","6","0.00","0.00"
"09:59:57","31.1","28.2","89","30.08","190","3.8","11","0.00","0.00"
"10:04:56","31.1","28.4","89.4","30.08","192","4.2","8.1","0.00","0.00"
"10:09:58","31.2","28.6","90","30.08","185","3","7","0.00","0.00"
"10:14:56","31.2","28.6","90","30.08","166","3.1","8.1","0.00","0.00"
"10:19:58","31.2","28.7","90.3","30.06","193","2.4","8.1","0.00","0.00"
"10:24:57","31.3","28.7","90.1","30.06","168","3.4","6","0.00","0.00"
"10:29:59","31.3","29","91","30.06","169","3.1","8.1","0.00","0.00"
"10:34:57","31.3","29","91","30.05","171","2.3","6","0.00","0.00"
"10:39:57","31.4","29.1","91","30.05","168","2.4","5.8","0.00","0.00"
"10:44:59","31.4","29.3","91.7","30.05","184","2.5","5","0.00","0.00"
"10:49:57","31.5","29.4","92","30.04","177","1.8","4","0.00","0.00"
"10:54:56","31.5","29.4","92","30.04","194","3","7","0.00","0.00"
"10:59:54","31.6","29.5","92","30.04","165","2.6","5","0.00","0.00"
"11:04:57","31.6","29.5","92","30.03","183","2.1","4","0.00","0.00"
"11:09:59","31.7","29.6","92","30.03","186","2.4","5","0.00","0.00"
"11:14:58","31.7","29.6","92.1","30.03","177","2.4","6","0.00","0.00"
"11:19:56","31.7","29.6","92","30.02","183","2.9","5","0.00","0.00"
"11:24:57","31.8","29.8","92.5","30.02","165","2.2","5","0.00","0.00"
"11:29:59","31.8","30","93","30.02","173","2.4","4.6","0.00","0.00"
"11:34:57","31.8","30","93","30.00","144","2.8","6","0.00","0.00"
"11:39:56","31.9","30.1","93","30.00","140","2.3","6","0.00","0.00"
"11:44:58","31.9","30.1","93","30.00","144","2.5","7","0.00","0.00"
"11:49:57","32","30.2","93","29.99","188","2.8","8","0.00","0.00"
"11:54:59","32","30.2","93","29.99","172","2.8","5","0.00","0.00"
"11:59:57","32.1","30.3","93","29.99","188","2.8","4.6","0.00","0.00"
"12:04:56","32.2","30.4","93","29.97","194","3.2","6","0.00","0.00"
"12:09:57","32.2","30.4","93","29.97","183","2.9","6","0.00","0.00"
"12:14:56","32.3","30.6","93.1","29.97","204","2.8","5.8","0.00","0.00"
"12:19:57","32.4","30.6","93.1","29.96","203","2.1","5","0.00","0.00"
"12:24:59","32.5","30.8","93.5","29.96","240","2.3","5","0.00","0.00"
"12:29:57","32.5","31","94","29.96","240","1.9","4","0.00","0.00"
"12:34:58","32.5","31","94","29.95","240","1.4","3.5","0.00","0.00"
"12:39:58","32.6","31.1","94","29.95","231","1.8","4","0.00","0.00"
"12:44:56","32.7","31.2","94","29.95","186","2.3","6","0.00","0.00"
"12:49:57","32.8","31.3","94","29.93","168","2.7","7","0.00","0.00"
"12:54:59","32.8","31.3","94","29.93","179","2.4","7","0.00","0.00"
"12:59:56","32.9","31.4","94","29.93","181","3.7","7","0.01","0.01"
"13:04:56","33","31.5","94","29.90","153","2.8","5","0.01","0.01"
"13:09:58","33","31.5","94","29.90","168","3.4","8.1","0.01","0.01"
"13:14:58","33.1","31.6","94","29.90","167","2.4","5","0.01","0.01"
"13:19:57","33.2","31.7","94","29.86","160","5.2","12","0.02","0.02"
"13:24:57","33.2","31.7","94","29.86","167","5.8","16.1","0.03","0.02"
"13:29:56","33.2","31.7","94","29.86","189","4.1","10","0.03","0.03"
"13:34:59","33.4","31.9","94","29.83","245","3.3","7","0.05","0.04"
"13:39:56","33.4","31.9","94","29.83","216","3.9","7","0.06","0.06"
"13:44:58","33.3","31.8","94","29.83","195","4","10.4","0.07","0.07"
"13:49:56","33.3","31.8","94","29.83","204","3.7","10.4","0.09","0.08"
"13:54:58","33.3","31.8","94","29.83","209","3.7","6","0.10","0.10"
"13:59:57","33.4","31.9","94","29.83","206","3.5","6","0.12","0.11"
"14:04:56","33.4","31.9","94","29.83","190","2.4","5","0.13","0.12"
"14:09:58","33.5","32","94","29.83","191","3.1","9.2","0.15","0.13"
"14:14:59","33.6","32.1","94","29.83","177","3.2","8.1","0.16","0.14"
"14:19:56","33.7","32.2","94","29.82","161","3.5","9.2","0.18","0.16"
"14:24:58","33.9","32.4","94","29.82","173","3.4","7","0.23","0.20"
"14:29:57","34.1","32.7","94.4","29.82","177","2.5","6","0.24","0.21"
"14:34:59","34.3","32.8","94.3","29.81","176","2.6","6","0.24","0.21"
"14:39:59","34.3","32.8","94","29.81","172","2.5","6","0.24","0.19"
"14:44:58","34.4","32.9","94","29.81","190","3.9","7","0.25","0.19"
"14:49:56","34.4","32.9","94","29.81","209","3.7","8.1","0.25","0.18"
"14:54:59","34.4","32.9","94","29.81","208","4.9","10","0.25","0.16"
"14:59:58","34.5","33","94","29.82","211","4.2","10.4","0.25","0.15"
"15:04:56","34.6","33.1","94","29.82","226","4.2","8.1","0.25","0.13"
"15:09:58","34.8","33.2","94","29.82","200","3.5","7","0.25","0.12"
"15:14:59","34.9","33.3","94","29.82","202","3.3","7","0.26","0.10"
"15:19:58","35","33.4","94","29.81","186","4","9","0.26","0.10"
"15:24:57","35","33.4","94","29.81","199","4.3","10","0.26","0.08"
"15:29:56","35.1","33.5","94","29.82","211","3.2","7","0.27","0.03"
"15:34:56","35.2","33.6","94","29.82","211","4.4","9","0.27","0.03"
"15:39:56","35.4","33.8","94","29.82","202","5.2","10.4","0.27","0.03"
"15:44:59","35.8","34.4","94.4","29.82","202","4","7","0.27","0.03"
"15:49:59","36.3","34.9","94.6","29.82","199","3.4","7","0.28","0.03"
"15:54:58","36.4","34.6","93.3","29.82","195","5.1","12","0.28","0.03"
"15:59:57","36.3","34.5","93","29.82","204","4.4","10.4","0.28","0.03"
"16:04:56","36.3","34.5","93","29.81","200","4.3","7","0.29","0.04"
"16:09:58","36.4","34.6","93","29.81","203","5.4","11.5","0.29","0.04"
"16:14:59","36.3","34.5","93","29.81","216","4.7","10.4","0.29","0.04"
"16:19:58","36.3","34.5","93","29.81","199","3.9","7","0.29","0.03"
"16:24:57","36.3","34.5","93","29.81","211","4.3","9","0.30","0.04"
"16:29:59","36.3","34.5","93","29.82","225","4","9.2","0.30","0.04"
"16:34:58","36.4","34.6","93","29.82","218","3.1","6","0.30","0.03"
"16:39:59","36.4","34.6","93","29.82","207","3.6","6","0.30","0.03"
"16:44:57","36.5","34.7","93","29.82","214","2.7","5.8","0.30","0.03"
"16:49:56","36.6","34.9","93.2","29.81","230","3.1","6","0.31","0.04"
"16:54:59","36.8","35","93","29.81","222","2.1","3.5","0.31","0.03"
"16:59:57","36.9","35.1","93","29.82","223","1.3","2.3","0.31","0.03"
"17:04:57","36.9","34.9","92.5","29.82","199","1.9","4","0.31","0.03"
"17:09:59","36.8","34.9","92.7","29.82","188","0.9","3.5","0.31","0.02"
"17:14:59","36.8","35","93","29.82","188","1.4","3.5","0.31","0.02"
"17:19:59","36.8","35","93","29.82","188","1.1","3.5","0.32","0.03"
"17:24:58","36.8","35","93","29.82","188","0.9","3","0.32","0.03"
"17:29:57","36.7","34.7","92.1","29.82","188","1.2","3.5","0.32","0.02"
"17:34:56","36.5","34.4","92","29.82","188","1.4","3","0.32","0.02"
"17:39:57","36.3","34.2","92","29.82","188","1.5","3.5","0.32","0.02"
"17:44:57","35.9","33.8","92","29.82","188","2.4","4","0.32","0.02"
"17:49:57","35.6","33.5","92.1","29.82","190","2.2","3.5","0.32","0.02"
"17:54:57","35.4","33.4","92.5","29.82","190","0.4","2.3","0.32","0.01"
"17:59:59","35.2","33.2","92.4","29.83","190","0.4","2.3","0.32","0.01"
"18:04:58","35","33.2","93","29.83","190","0","1.2","0.32","0.01"
"18:09:57","34.8","33","93","29.83","190","0.2","2.3","0.32","0.01"
"18:14:58","34.6","32.8","93","29.84","190","0.1","1.2","0.32","0.01"
"18:19:58","34.4","32.6","93","29.84","190","0","1.2","0.32","0.01"
"18:24:59","34.2","32.4","93","29.84","190","0.1","2","0.32","0.00"
"18:29:59","34","32.4","93.5","29.84","185","0.8","2.3","0.32","0.00"
"18:34:58","33.9","32.4","94","29.84","185","0","1.2","0.32","0.00"
"18:39:59","33.9","32.4","94","29.84","185","0.5","2.3","0.32","0.00"
"18:44:58","33.8","32.3","94","29.85","185","0.2","2.3","0.32","0.00"
"18:49:58","33.5","32","94","29.85","185","0.1","2.3","0.32","0.00"
"18:54:58","33.4","31.9","94","29.85","185","0","1","0.32","0.00"
"18:59:58","33.1","31.4","93.4","29.86","185","0.3","2.3","0.32","0.00"
"19:04:59","32.9","31.4","93.8","29.86","185","0.9","2.3","0.32","0.00"
"19:09:57","32.8","31.3","94","29.86","185","0.8","2.3","0.32","0.00"
"19:14:59","32.9","31.6","94.9","29.86","185","0.3","2.3","0.32","0.00"
"19:19:59","32.8","31.4","94.1","29.86","185","0.5","3.5","0.32","0.00"
"19:24:59","32.4","30.8","93.5","29.86","186","0.6","2.3","0.32","0.00"
"19:29:58","32.1","30.5","93.5","29.87","186","0.4","2.3","0.32","0.00"
"19:34:59","32","30.5","94","29.87","186","0","0","0.32","0.00"
"19:39:59","32","30.5","94.1","29.87","186","0","0","0.32","0.00"
"19:44:59","31.9","30.5","94.7","29.87","186","0","0","0.32","0.00"
"19:49:58","31.6","30.1","94","29.87","186","0.3","2.3","0.32","0.00"
"19:54:58","31.3","29.8","94","29.87","227","1.5","3.5","0.32","0.00"
"19:59:59","31.1","29.6","94","29.87","240","0.1","1.2","0.32","0.00"
"20:04:59","30.9","29.4","94.1","29.87","240","0.3","3.5","0.32","0.00"
"20:09:58","30.9","29.6","95","29.87","240","0.4","2.3","0.32","0.00"
"20:14:56","31.2","29.9","95.1","29.88","240","0.2","2.3","0.32","0.00"
"20:19:57","31.6","30.6","96","29.88","240","0.8","2.3","0.32","0.00"
"20:24:57","31.7","30.7","96","29.88","240","0.2","2.3","0.32","0.00"
"20:29:58","31.7","30.5","95.2","29.88","240","0","0","0.32","0.00"
"20:34:56","31.6","30.3","95","29.88","240","0","0","0.32","0.00"
"20:39:57","31.3","29.9","94.7","29.88","240","0.2","2","0.32","0.00"
"20:44:58","31.1","29.6","94.1","29.89","240","0.1","1.2","0.32","0.00"
"20:49:59","30.8","29.4","94.1","29.89","240","0","0","0.32","0.00"
"20:54:57","30.6","29.1","94","29.89","240","0","0","0.32","0.00"
"20:59:58","30.5","29.1","94.4","29.89","240","0","0","0.32","0.00"
"21:04:59","30.7","29.6","95.5","29.89","240","0.1","1.2","0.32","0.00"
"21:09:58","31.4","30.4","96","29.89","240","0.1","1.2","0.32","0.00"
"21:14:56","31.8","30.8","96","29.90","240","0.2","2","0.32","0.00"
"21:19:56","31.6","30.5","95.6","29.90","240","1.3","3.5","0.32","0.00"
"21:24:57","31.1","29.8","95","29.90","240","2.1","3.5","0.32","0.00"
"21:29:58","30.7","29.3","94.4","29.90","265","1.9","3.5","0.32","0.00"
"21:34:58","30.4","29.1","94.7","29.89","276","1.9","3.5","0.32","0.00"
"21:39:56","30.3","29","95","29.89","276","0.6","2.3","0.32","0.00"
"21:44:57","30.3","29","95","29.89","193","0.1","3","0.32","0.00"
"21:49:57","30.3","29","95.1","29.89","129","2.3","4","0.32","0.00"
"21:54:59","30.5","29.5","96","29.89","119","0.5","3.5","0.32","0.00"
"21:59:56","30.8","29.8","96","29.90","115","0.9","3.5","0.32","0.00"
"22:04:56","31.3","30.3","96.2","29.90","108","2.1","5","0.32","0.00"
"22:09:58","31.8","30.9","96.5","29.90","6","0.3","2.3","0.32","0.00"
"22:14:57","31.8","30.8","96","29.91","20","1.3","4","0.32","0.00"
"22:19:58","31.6","30.4","95.2","29.91","326","1.5","4","0.32","0.00"
"22:24:56","31.2","29.9","94.9","29.91","355","1","5","0.32","0.00"
"22:29:58","31","29.7","95","29.91","9","1.2","4","0.32","0.00"
"22:34:55","30.9","29.6","95","29.90","350","1.2","3.5","0.32","0.00"
"22:39:58","30.7","29.4","95","29.90","322","1","3.5","0.32","0.00"
"22:44:56","30.5","29.2","95","29.90","322","0.3","3.5","0.32","0.00"
"22:49:57","30.3","28.8","94","29.90","322","0.4","2","0.32","0.00"
"22:54:59","30","28.6","94.5","29.90","297","0.3","2","0.32","0.00"
"22:59:56","29.7","28.2","94","29.90","295","0.2","2.3","0.32","0.00"
"23:04:57","29.7","28.4","95","29.90","295","0.3","2.3","0.32","0.00"
"23:09:59","29.9","28.8","95.6","29.90","299","1.1","3.5","0.32","0.00"
"23:14:59","30.1","28.9","95.4","29.90","303","0.5","2.3","0.32","0.00"
"23:19:56","30","28.7","95","29.90","303","0","1.2","0.32","0.00"
"23:24:57","29.9","28.6","95","29.90","303","0.1","1.2","0.32","0.00"
"23:29:58","29.8","28.5","95","29.90","303","0.1","1.2","0.32","0.00"
"23:34:56","29.8","28.5","95","29.90","303","0.3","1.2","0.32","0.00"
"23:39:59","29.7","28.4","95","29.90","303","0.3","2.3","0.32","0.00"
"23:44:56","29.6","28.3","95","29.90","303","0.1","2","0.32","0.00"
"23:49:57","29.5","28.2","95","29.90","303","0.3","2.3","0.32","0.00"
"23:54:58","29.5","28.2","95","29.90","303","0","0","0.32","0.00"
"23:59:59","29.3","28","95","29.90","303","0.1","1.2","0.32","0.00"
